Weather History for Perry, FL

Change the Weather History Date:

Tuesday, July 22, 2014

  Actual Average (KCTY) Record (KCTY)
Temperature  
Mean Temperature 78 °F 82 °F  
Max Temperature 87 °F 91 °F 97 °F (2010)
Min Temperature 68 °F 72 °F 69 °F (2004)
Degree Days  
Heating Degree Days 0 0  
Month to date heating degree days 0  
Since 1 June heating degree days 0  
Since 1 July heating degree days 0  
Cooling Degree Days 12 17  
Month to date cooling degree days 358  
Year to date cooling degree days 1284  
Since 1 June cooling degree days 805  
Growing Degree Days 28 (Base 50)    
Moisture  
Dew Point 70 °F    
Average Humidity 80    
Maximum Humidity 100    
Minimum Humidity 55    
Precipitation  
Precipitation 0.00 in 0.19 in 1.56 in (1998)
Month to date precipitation 3.83  
Year to date precipitation 26.09  
Sea Level Pressure  
Sea Level Pressure 30.06 in    
Wind  
Wind Speed 2 mph (SW)    
Max Wind Speed 9 mph    
Max Gust Speed -    
Visibility 9 miles    
Events      
T = Trace of Precipitation, MM = Missing Value Source: NWS Daily Summary

Daily Weather History Graph

Daily Weather History Graph

Search for Another Location

Airport:

Trip Planner

Search our weather history database for the weather conditions in past years. The results will help you decide how hot, cold, wet, or windy it might be!

Date:

Astronomy

Jul. 22, 2014 Rise Set
Actual Time 6:47 AM EDT 8:33 PM EDT
Civil Twilight 6:20 AM EDT 9:00 PM EDT
Nautical Twilight 5:48 AM EDT 9:32 PM EDT
Astronomical Twilight 5:14 AM EDT 10:06 PM EDT
Moon 3:16 AM EDT (7/22) 5:12 PM EDT (7/22)
Length of Visible Light 14h 39m
Length of Day
13h 46m
Waning Crescent, 16% of the Moon is Illuminated
Jul 22
Waning Crescent
Jul 26
New
Aug 3
First Quarter
Aug 10
Full
Aug 17
Last Quarter

Hourly Weather History & Observations

Time (EDT) Temp. Heat Index Dew Point Humidity Pressure Visibility Wind Dir Wind Speed Gust Speed Precip Events Conditions
12:15 AM 71.6 °F - 69.8 °F 94% 30.08 in 10.0 mi Calm Calm - N/A   Clear
12:35 AM 69.8 °F - 69.8 °F 100% 30.08 in 10.0 mi Calm Calm - N/A   Clear
12:55 AM 69.8 °F - 69.8 °F 100% 30.08 in 10.0 mi Calm Calm - N/A   Scattered Clouds
1:15 AM 69.8 °F - 69.8 °F 100% 30.07 in 10.0 mi Calm Calm - N/A   Scattered Clouds
1:35 AM 69.8 °F - 69.8 °F 100% 30.06 in 10.0 mi ENE 3.5 mph - N/A   Scattered Clouds
1:55 AM 69.8 °F - 69.8 °F 100% 30.06 in 10.0 mi Calm Calm - N/A   Scattered Clouds
2:15 AM 69.8 °F - 69.8 °F 100% 30.05 in 10.0 mi Calm Calm - N/A   Scattered Clouds
2:35 AM 69.8 °F - 69.8 °F 100% 30.04 in 7.0 mi Calm Calm - N/A   Scattered Clouds
2:55 AM 69.8 °F - 69.8 °F 100% 30.05 in 7.0 mi Calm Calm - N/A   Scattered Clouds
3:15 AM 68.0 °F - 68.0 °F 100% 30.04 in 7.0 mi Calm Calm - N/A   Scattered Clouds
3:35 AM 68.0 °F - 68.0 °F 100% 30.03 in 7.0 mi Calm Calm - N/A   Clear
3:55 AM 68.0 °F - 68.0 °F 100% 30.02 in 7.0 mi Calm Calm - N/A   Clear
4:15 AM 68.0 °F - 68.0 °F 100% 30.02 in 7.0 mi Calm Calm - N/A   Scattered Clouds
4:35 AM 68.0 °F - 68.0 °F 100% 30.02 in 7.0 mi Calm Calm - N/A   Scattered Clouds
4:55 AM 68.0 °F - 68.0 °F 100% 30.03 in 7.0 mi Calm Calm - N/A   Scattered Clouds
5:15 AM 68.0 °F - 68.0 °F 100% 30.03 in 7.0 mi Calm Calm - N/A   Scattered Clouds
5:35 AM 68.0 °F - 68.0 °F 100% 30.04 in 10.0 mi Calm Calm - N/A   Clear
5:55 AM 68.0 °F - 68.0 °F 100% 30.05 in 7.0 mi Calm Calm - N/A   Clear
6:15 AM 68.0 °F - 68.0 °F 100% 30.05 in 7.0 mi Calm Calm - N/A   Scattered Clouds
7:35 AM 69.8 °F - 69.8 °F 100% 30.08 in 7.0 mi Calm Calm - N/A   Mostly Cloudy
7:55 AM 69.8 °F - 69.8 °F 100% 30.08 in 10.0 mi Calm Calm - N/A   Overcast
8:15 AM 71.6 °F - 69.8 °F 94% 30.09 in 10.0 mi Calm Calm - N/A   Scattered Clouds
8:35 AM 71.6 °F - 71.6 °F 100% 30.09 in 10.0 mi Calm Calm - N/A   Clear
8:55 AM 73.4 °F - 71.6 °F 94% 30.09 in 10.0 mi Calm Calm - N/A   Clear
9:15 AM 77.0 °F - 73.4 °F 89% 30.09 in 10.0 mi ESE 3.5 mph - N/A   Clear
9:35 AM 78.8 °F - 71.6 °F 78% 30.09 in 10.0 mi SE 3.5 mph - N/A   Clear
9:55 AM 78.8 °F - 71.6 °F 78% 30.09 in 10.0 mi SE 4.6 mph - N/A   Clear
10:15 AM 80.6 °F 84.6 °F 71.6 °F 74% 30.09 in 10.0 mi SE 3.5 mph - N/A   Clear
10:35 AM 80.6 °F 83.9 °F 69.8 °F 70% 30.09 in 10.0 mi East 3.5 mph - N/A   Clear
10:55 AM 82.4 °F 87.2 °F 71.6 °F 70% 30.09 in 10.0 mi South 3.5 mph - N/A   Clear
11:15 AM 82.4 °F 86.3 °F 69.8 °F 66% 30.08 in 10.0 mi SSE 3.5 mph - N/A   Clear
11:35 AM 82.4 °F 86.3 °F 69.8 °F 66% 30.08 in 10.0 mi Calm Calm - N/A   Clear
11:55 AM 82.4 °F 86.3 °F 69.8 °F 66% 30.08 in 10.0 mi South 3.5 mph - N/A   Clear
12:15 PM 84.2 °F 88.4 °F 69.8 °F 62% 30.07 in 10.0 mi Calm Calm - N/A   Scattered Clouds
12:35 PM 86.0 °F 90.4 °F 69.8 °F 58% 30.08 in 10.0 mi SE 3.5 mph - N/A   Scattered Clouds
1:15 PM 86.0 °F 91.8 °F 71.6 °F 62% 30.08 in 10.0 mi NW 9.2 mph - N/A   Mostly Cloudy
1:35 PM 84.2 °F 88.4 °F 69.8 °F 62% 30.08 in 10.0 mi Calm Calm - N/A   Scattered Clouds
1:55 PM 82.4 °F 87.2 °F 71.6 °F 70% 30.07 in 10.0 mi West 4.6 mph - N/A   Overcast
2:15 PM 86.0 °F 90.4 °F 69.8 °F 58% 30.06 in 10.0 mi West 4.6 mph - N/A   Mostly Cloudy
2:35 PM 86.0 °F 90.4 °F 69.8 °F 58% 30.06 in 10.0 mi NNW 4.6 mph - N/A   Scattered Clouds
2:55 PM 84.2 °F 88.4 °F 69.8 °F 62% 30.06 in 10.0 mi West 5.8 mph - N/A   Mostly Cloudy
3:15 PM 86.0 °F 90.4 °F 69.8 °F 58% 30.05 in 10.0 mi West 5.8 mph - N/A   Overcast
3:35 PM 87.8 °F 93.8 °F 71.6 °F 58% 30.04 in 10.0 mi WSW 6.9 mph - N/A   Mostly Cloudy
3:55 PM 86.0 °F 90.4 °F 69.8 °F 58% 30.04 in 10.0 mi SW 4.6 mph - N/A   Scattered Clouds
4:15 PM 87.8 °F 92.6 °F 69.8 °F 55% 30.04 in 10.0 mi SW 8.1 mph - N/A   Scattered Clouds
4:35 PM 87.8 °F 92.6 °F 69.8 °F 55% 30.04 in 10.0 mi WSW 9.2 mph - N/A   Clear
4:55 PM 87.8 °F 92.6 °F 69.8 °F 55% 30.03 in 10.0 mi SSW 9.2 mph - N/A   Scattered Clouds
5:15 PM 87.8 °F 92.6 °F 69.8 °F 55% 30.04 in 10.0 mi SSW 8.1 mph - N/A   Clear
5:35 PM 87.8 °F 92.6 °F 69.8 °F 55% 30.03 in 10.0 mi WSW 8.1 mph - N/A   Scattered Clouds
5:55 PM 86.0 °F 90.4 °F 69.8 °F 58% 30.03 in 10.0 mi SW 4.6 mph - N/A   Clear
6:15 PM 86.0 °F 89.4 °F 68.0 °F 55% 30.03 in 10.0 mi SSW 5.8 mph - N/A   Clear
6:35 PM 86.0 °F 90.4 °F 69.8 °F 58% 30.02 in 10.0 mi SW 5.8 mph - N/A   Clear
6:55 PM 86.0 °F 90.4 °F 69.8 °F 58% 30.02 in 10.0 mi WSW 4.6 mph - N/A   Clear
7:15 PM 84.2 °F 88.4 °F 69.8 °F 62% 30.02 in 10.0 mi WSW 6.9 mph - N/A   Clear
7:35 PM 82.4 °F 86.3 °F 69.8 °F 66% 30.03 in 10.0 mi SW 4.6 mph - N/A   Clear
7:55 PM 82.4 °F 87.2 °F 71.6 °F 70% 30.04 in 10.0 mi SW 4.6 mph - N/A   Clear
8:15 PM 80.6 °F 84.6 °F 71.6 °F 74% 30.05 in 10.0 mi Calm Calm - N/A   Clear
8:35 PM 78.8 °F - 71.6 °F 78% 30.06 in 10.0 mi Calm Calm - N/A   Clear
8:55 PM 78.8 °F - 71.6 °F 78% 30.06 in 10.0 mi Calm Calm - N/A   Clear
9:15 PM 77.0 °F - 71.6 °F 83% 30.07 in 7.0 mi Calm Calm - N/A   Clear
9:35 PM 77.0 °F - 71.6 °F 83% 30.07 in 10.0 mi SW 3.5 mph - N/A   Clear
10:15 PM 75.2 °F - 71.6 °F 89% 30.07 in 10.0 mi Calm Calm - N/A   Clear
10:35 PM 73.4 °F - 71.6 °F 94% 30.08 in 10.0 mi Calm Calm - N/A   Clear
10:55 PM 73.4 °F - 71.6 °F 94% 30.08 in 10.0 mi Calm Calm - N/A   Clear
11:15 PM 73.4 °F - 71.6 °F 94% 30.08 in 10.0 mi Calm Calm - N/A   Clear
11:35 PM 73.4 °F - 71.6 °F 94% 30.08 in 10.0 mi Calm Calm - N/A   Clear
11:55 PM 73.4 °F - 71.6 °F 94% 30.08 in 10.0 mi Calm Calm - N/A   Clear